Date String (YYYY-MM-DD hh:mm:ss) UTC,Instrument flags,Ambient pressure (hPa),Sample flow (lpm),Bypass flow (lpm),Sample temperature (°C),Ambient temperature (°C),ASC tube jacket temperature (°C),LED temperature (°C),Box temperature (°C),Sample RH (%),Span deviation,Mass concentration (μg/m³),Mass concentration (μg/m³),Mass concentration (μg/m³)
DateTimeUTC,F1_M11,P_M11,Q1_M11,Q2_M11,T1_M11,T2_M11,T3_M11,T4_M11,T5_M11,U1_M11,ZSPAN_M11,X0_M11,X2_M11,X1_M11
2022-12-15 21:00:00,,0820.0,5.00,0.00,22.3,20.7,00.0,31.2,23.9,06.8,0000.0,0009.59,0003.93,0003.46
2022-12-15 21:01:00,,0820.0,4.98,0.00,22.2,20.6,00.0,31.2,23.9,06.8,0000.0,0009.55,0003.95,0003.46
2022-12-15 21:02:00,,0820.0,5.03,0.00,22.2,20.6,00.0,31.2,23.9,06.9,0000.0,0009.40,0003.98,0003.47
2022-12-15 21:03:00,,0820.0,4.95,0.00,22.2,20.5,00.0,31.1,23.8,07.1,0000.0,0009.32,0003.96,0003.48
2022-12-15 21:04:00,,0820.0,5.05,0.00,22.2,20.5,00.0,31.1,23.9,07.1,0000.0,0009.38,0003.93,0003.49
2022-12-15 21:05:00,,0820.0,4.95,0.00,22.2,20.5,00.0,31.1,23.8,06.9,0000.0,0010.25,0003.94,0003.51
2022-12-15 21:06:00,,0820.0,5.05,0.00,22.1,20.4,00.0,31.1,23.8,06.8,0000.0,0010.74,0003.94,0003.52
2022-12-15 21:07:00,,0820.0,4.96,0.00,22.1,20.4,00.0,31.1,23.8,06.8,0000.0,0010.68,0003.98,0003.54
2022-12-15 21:08:00,,0820.0,5.04,0.00,22.1,20.4,00.0,31.1,23.8,06.8,0000.0,0010.54,0004.01,0003.54
2022-12-15 21:09:00,,0819.9,4.95,0.00,22.1,20.4,00.0,31.0,23.7,06.9,0000.0,0010.10,0004.03,0003.55
2022-12-15 21:10:00,,0820.0,5.04,0.00,22.0,20.4,00.0,31.0,23.7,06.9,0000.0,0010.83,0004.02,0003.54
2022-12-15 21:11:00,,0820.0,4.98,0.00,22.0,20.3,00.0,31.0,23.7,06.9,0000.0,0011.60,0004.01,0003.54
2022-12-15 21:12:00,,0820.0,4.98,0.00,22.0,20.3,00.0,31.0,23.7,07.0,0000.0,0012.29,0004.01,0003.52
2022-12-15 21:13:00,,0820.0,4.99,0.00,22.0,20.2,00.0,31.0,23.6,07.0,0000.0,0013.92,0004.02,0003.51
2022-12-15 21:14:00,,0820.0,5.05,0.00,21.9,20.1,00.0,31.0,23.5,07.0,0000.0,0014.32,0004.03,0003.50
2022-12-15 21:15:00,,0820.0,4.98,0.00,21.9,20.0,00.0,30.9,23.5,07.1,0000.0,0014.70,0004.05,0003.49
2022-12-15 21:16:00,,0820.0,4.98,0.00,21.9,20.1,00.0,30.9,23.5,07.1,0000.0,0014.54,0004.06,0003.48
2022-12-15 21:17:00,,0820.0,5.06,0.00,21.9,20.7,00.0,30.8,23.7,07.1,0000.0,0014.03,0004.04,0003.48
2022-12-15 21:18:00,,0820.0,4.95,0.00,22.0,21.8,00.0,30.8,23.9,07.1,0000.0,0013.80,0004.00,0003.47
2022-12-15 21:19:00,,0820.0,5.02,0.00,22.1,22.1,00.0,30.9,24.1,07.1,0000.0,0013.83,0004.00,0003.47
2022-12-15 21:20:00,,0820.1,4.99,0.00,22.2,21.8,00.0,30.9,24.0,07.0,0000.0,0013.78,0004.01,0003.47
2022-12-15 21:21:00,,0820.1,4.99,0.00,22.1,21.4,00.0,30.9,23.9,07.0,0000.0,0012.91,0004.04,0003.47
2022-12-15 21:22:00,,0820.1,5.04,0.00,22.1,21.0,00.0,31.0,23.8,07.0,0000.0,0012.39,0004.05,0003.48
2022-12-15 21:23:00,,0820.2,4.96,0.00,22.1,20.7,00.0,31.0,23.8,07.0,0000.0,0012.28,0004.04,0003.49
2022-12-15 21:24:00,,0820.2,5.05,0.00,22.0,20.5,00.0,31.0,23.7,07.0,0000.0,0010.75,0004.03,0003.49
2022-12-15 21:25:00,,0820.2,4.96,0.00,22.0,20.4,00.0,30.9,23.7,07.1,0000.0,0010.49,0004.02,0003.50
2022-12-15 21:26:00,,0820.1,5.03,0.00,22.0,20.3,00.0,30.9,23.6,07.1,0000.0,0010.44,0004.02,0003.51
2022-12-15 21:27:00,,0820.2,4.96,0.00,22.0,20.2,00.0,30.9,23.6,07.1,0000.0,0009.58,0004.03,0003.51
2022-12-15 21:28:00,,0820.2,5.03,0.00,21.9,20.1,00.0,30.9,23.5,07.1,0000.0,0009.55,0004.03,0003.52
2022-12-15 21:29:00,,0820.2,5.00,0.00,21.9,20.0,00.0,30.9,23.5,07.1,0000.0,0009.44,0004.02,0003.53
2022-12-15 21:30:00,,0820.2,4.98,0.00,21.8,20.0,00.0,30.9,23.5,07.1,0000.0,0009.73,0004.04,0003.53
2022-12-15 21:31:00,,0820.2,4.98,0.00,21.8,19.9,00.0,30.9,23.4,07.1,0000.0,0010.21,0004.02,0003.53
2022-12-15 21:32:00,,0820.2,5.04,0.00,21.8,19.9,00.0,30.8,23.4,07.2,0000.0,0011.09,0004.01,0003.52
2022-12-15 21:33:00,,0820.2,4.97,0.00,21.8,19.8,00.0,30.8,23.4,07.2,0000.0,0011.67,0003.99,0003.52
2022-12-15 21:34:00,,0820.2,4.98,0.00,21.7,19.8,00.0,30.8,23.3,07.2,0000.0,0011.06,0004.01,0003.52
2022-12-15 21:35:00,,0820.2,5.05,0.00,21.7,19.7,00.0,30.8,23.2,07.2,0000.0,0011.02,0004.02,0003.51
2022-12-15 21:36:00,,0820.2,4.96,0.00,21.7,20.1,00.0,30.7,23.3,07.2,0000.0,0010.93,0004.03,0003.50
2022-12-15 21:37:00,,0820.2,5.07,0.00,21.8,21.4,00.0,30.6,23.7,07.2,0000.0,0010.57,0004.01,0003.49
2022-12-15 21:38:00,,0820.2,4.95,0.00,21.9,22.0,00.0,30.7,23.9,07.2,0000.0,0009.98,0003.96,0003.48
2022-12-15 21:39:00,,0820.2,5.01,0.00,21.9,21.6,00.0,30.7,23.8,07.1,0000.0,0010.20,0003.96,0003.48
2022-12-15 21:40:00,,0820.2,5.01,0.00,21.9,21.2,00.0,30.8,23.7,07.1,0000.0,0010.24,0003.98,0003.47
2022-12-15 21:41:00,,0820.2,5.00,0.00,21.9,20.9,00.0,30.8,23.6,07.1,0000.0,0010.40,0003.98,0003.48
2022-12-15 21:42:00,,0820.2,4.98,0.00,21.9,20.6,00.0,30.8,23.5,07.1,0000.0,0010.65,0004.04,0003.50
2022-12-15 21:43:00,,0820.2,5.05,0.00,21.8,20.3,00.0,30.8,23.4,07.1,0000.0,0009.82,0004.06,0003.51
2022-12-15 21:44:00,,0820.2,4.95,0.00,21.8,20.2,00.0,30.8,23.4,07.1,0000.0,0009.27,0004.09,0003.51
2022-12-15 21:45:00,,0820.2,5.04,0.00,21.8,20.1,00.0,30.8,23.4,07.1,0000.0,0009.64,0004.08,0003.50
2022-12-15 21:46:00,,0820.2,4.98,0.00,21.7,20.0,00.0,30.7,23.4,07.2,0000.0,0010.09,0004.11,0003.53
2022-12-15 21:47:00,,0820.2,4.98,0.00,21.7,20.0,00.0,30.7,23.3,07.2,0000.0,0010.98,0004.11,0003.53
2022-12-15 21:48:00,,0820.2,5.03,0.00,21.7,19.9,00.0,30.7,23.3,07.2,0000.0,0011.77,0004.17,0003.55
2022-12-15 21:49:00,,0820.2,4.99,0.00,21.7,19.8,00.0,30.7,23.3,07.2,0000.0,0012.45,0004.20,0003.57
2022-12-15 21:50:00,,0820.2,4.98,0.00,21.6,19.8,00.0,30.7,23.2,07.3,0000.0,0012.80,0004.25,0003.59
2022-12-15 21:51:00,,0820.2,4.99,0.00,21.6,19.8,00.0,30.7,23.2,07.3,0000.0,0013.18,0004.28,0003.61
2022-12-15 21:52:00,,0820.2,5.03,0.00,21.6,19.7,00.0,30.6,23.1,07.2,0000.0,0013.11,0004.30,0003.62
2022-12-15 21:53:00,,0820.3,4.97,0.00,21.5,19.7,00.0,30.6,23.1,07.2,0000.0,0012.67,0004.31,0003.63
2022-12-15 21:54:00,,0820.3,5.05,0.00,21.5,19.7,00.0,30.6,23.1,07.2,0000.0,0012.25,0004.31,0003.64
2022-12-15 21:55:00,,0820.3,4.98,0.00,21.5,19.7,00.0,30.6,23.1,07.2,0000.0,0012.06,0004.32,0003.66
2022-12-15 21:56:00,,0820.4,4.99,0.00,21.5,19.9,00.0,30.5,23.2,07.2,0000.0,0011.71,0004.30,0003.68
2022-12-15 21:57:00,,0820.4,5.00,0.00,21.6,21.1,00.0,30.5,23.4,07.2,0000.0,0011.41,0004.31,0003.68
2022-12-15 21:58:00,,0820.5,5.01,0.00,21.7,21.9,00.0,30.5,23.7,07.1,0000.0,0010.63,0004.30,0003.68
2022-12-15 21:59:00,,0820.5,4.98,0.00,21.8,21.5,00.0,30.5,23.7,07.1,0000.0,0010.39,0004.30,0003.69
